Location: Archemont
(49.1579°N, 1.7598°E)
Time: 13:51:21
(UTC+00:00)

Transit 2A - Pass Details

Date: 17 April 2024
Orbit: 594 x 958 km, 66.7° (Epoch: 27 May)

Event Time Altitude Azimuth Distance (km) Brightness Sun altitude
Rises 08:16:17 0° 240° (WSW) 2,857 8.7 31.2°
Reaches altitude 10° 08:18:36 10° 248° (WSW) 1,984 7.9 31.5°
Maximum altitude 08:22:45 37° 317° (NW) 1,008 6.5 32.2°
Drops below altitude 10° 08:27:14 10° 25° (NNE) 2,153 8.4 32.8°
Sets 08:29:51 0° 34° (NE) 3,136 9.3 33.2°
